Location: Unspecified
(49.2170°N, 0.0000°E)
Time: 04:30:21
(UTC+00:00)

A-11 Canister half - Pass Details

Date: 18 June 2019
Orbit: 1526 x 1683 km, 47.3° (Epoch: 16 August)

Event Time Altitude Azimuth Distance (km) Brightness Sun altitude
Rises 12:28:18 0° 289° (WNW) 4,683 11.5 63.6°
Reaches altitude 10° 12:31:50 10° 278° (W) 3,704 11.2 63.5°
Maximum altitude 12:39:19 28° 225° (SW) 2,574 11.2 63.1°
Drops below altitude 10° 12:46:55 10° 170° (S) 3,759 11.6 62.7°
Sets 12:50:34 0° 160° (SSE) 4,764 11.8 62.4°
